Date,TemperatureHighF,TemperatureAvgF,TemperatureLowF,DewpointHighF,DewpointAvgF,DewpointLowF,HumidityHigh,HumidityAvg,HumidityLow,PressureMaxIn,PressureMinIn,WindSpeedMaxMPH,WindSpeedAvgMPH,GustSpeedMaxMPH,PrecipitationSumIn
2013-1-5,58.8,45.0,35.1,43.4,37.7,31.3,91,77,45,30.03,29.82,6,1,6,1.94
2013-1-6,66.2,45.1,32.2,44.2,32.1,25.1,94,65,33,30.06,29.85,8,2,9,0.00
2013-1-7,63.7,45.8,33.3,37.9,30.7,23.7,81,58,34,30.03,29.74,6,1,6,0.00
2013-1-8,58.8,51.9,44.1,57.7,48.9,35.3,96,90,71,29.79,29.59,10,2,10,0.75
2013-1-9,62.6,60.3,57.9,61.3,59.1,56.8,96,96,96,29.74,29.59,10,2,10,2.74
2013-1-10,69.1,59.5,46.8,61.6,50.9,41.1,96,76,41,29.68,29.44,12,3,14,0.04
2013-1-11,76.5,60.3,46.0,62.1,49.2,42.9,92,70,36,29.74,29.38,10,4,10,1.74
2013-1-12,71.2,65.1,42.4,68.1,62.9,40.3,95,93,80,29.56,29.29,12,4,14,0.29
2013-1-13,52.2,40.6,34.0,40.1,31.9,24.9,94,73,47,29.85,29.53,14,6,14,0.08
2013-1-14,47.3,36.4,31.6,29.0,25.9,23.6,84,66,48,29.94,29.82,4,4,4,0.00
2013-1-15,34.3,33.0,31.3,32.4,28.8,0.0,96,85,61,29.94,29.76,4,2,4,0.21
2013-1-16,55.6,38.8,29.8,32.4,26.0,0.0,96,64,30,30.00,29.76,9,2,174,0.04
2013-1-17,67.5,46.2,29.1,37.1,27.4,20.6,74,50,30,30.09,29.88,10,3,12,0.00
2013-1-18,69.6,49.9,36.9,38.8,31.1,26.1,73,50,27,30.18,29.88,7,2,7,0.00
2013-1-19,67.8,51.0,37.2,45.1,38.1,29.9,88,63,44,30.00,29.76,7,2,7,0.00
2013-1-20,72.9,61.2,48.6,53.8,45.6,41.3,81,58,39,29.94,29.65,9,2,9,0.00
2013-1-21,77.7,56.8,44.8,55.6,45.7,38.4,94,70,35,29.91,29.71,6,2,6,0.00
2013-1-22,72.9,53.0,39.2,49.1,40.7,32.1,84,65,37,29.97,29.76,6,2,8,0.00
2013-1-23,77.4,60.8,48.4,55.1,49.3,44.3,96,69,37,30.03,29.71,10,3,11,0.00
2013-1-24,70.9,62.8,57.4,61.4,59.1,53.3,95,88,68,29.88,29.71,10,3,10,0.00
2013-1-25,75.9,63.2,52.9,60.4,56.9,49.0,93,81,54,29.79,29.59,11,4,11,0.00
2013-1-26,59.0,55.6,52.9,56.7,53.5,50.0,96,93,89,29.85,29.76,4,1,4,0.00
2013-1-27,76.6,64.5,54.3,64.2,59.0,53.2,96,84,57,29.79,29.53,12,4,13,0.00
2013-1-28,67.6,67.5,67.1,63.6,63.3,62.8,87,86,86,29.71,29.65,10,5,10,0.00